Wind_Speed
24 24 25 25 25 26 27 27 27 24 23 22 22 23 23 22 22 22 22 22 22 22 21 20 20 20 19 19 19 18 18 18 18 18 18 17 18 18 18 17 17 18 18 18
25 25 26 27 25 25 25 25 26 24 23 23 23 23 23 23 23 23 22 21 21 22 21 21 20 20 20 20 20 20 20 19 19 19 19 19 19 18 18 18 19 19 19 19
26 26 27 28 26 25 25 25 25 25 24 24 24 25 24 23 22 22 23 22 21 20 20 21 21 21 20 21 21 21 21 21 21 21 20 20 20 20 20 20 21 20 20 20
26 26 28 26 26 26 26 27 27 27 25 25 25 25 24 23 23 23 23 22 22 22 22 23 23 22 22 22 21 22 22 22 23 23 22 23 22 21 21 22 22 22 21 21
27 27 27 26 26 27 27 27 27 27 27 27 26 26 25 25 24 23 23 23 23 23 23 24 24 23 23 23 23 22 23 24 24 24 24 23 23 23 23 22 22 23 22 22
28 28 27 26 25 26 27 28 27 27 27 27 26 25 25 25 25 25 25 25 25 25 25 25 25 25 24 24 24 25 25 25 25 25 24 24 24 23 23 23 23 23 23 22
29 29 29 27 27 27 28 27 26 27 28 28 27 26 27 26 26 26 26 26 26 26 26 26 26 26 26 25 25 25 26 26 26 25 25 25 24 24 24 24 23 23 23 23
28 29 29 29 28 28 27 27 27 27 28 29 29 28 28 28 27 27 27 28 28 28 28 28 28 27 27 27 27 26 26 26 26 25 25 25 25 25 25 24 24 24 24 24
28 27 27 27 27 26 26 26 27 27 27 28 28 29 29 29 29 29 28 28 29 30 29 29 29 28 28 27 27 26 26 25 25 26 26 26 26 26 25 25 25 25 24 24
27 27 27 27 25 25 26 27 28 28 28 27 28 28 29 30 30 30 29 30 30 31 30 29 29 28 27 27 27 27 27 27 27 27 28 28 28 27 27 27 26 26 25 24
27 26 28 28 26 25 25 27 29 29 29 29 29 29 29 29 29 30 30 30 31 29 29 29 28 28 27 28 28 28 28 28 28 28 29 29 29 28 28 28 27 26 25 24
25 25 25 25 26 26 26 28 28 28 28 29 28 28 28 29 29 30 31 30 29 29 29 29 28 27 28 29 28 28 28 28 28 28 29 29 29 28 28 27 27 27 26 25
23 23 24 26 27 28 28 28 28 28 28 27 27 27 28 28 28 28 30 29 29 27 27 27 26 27 27 28 28 28 28 28 28 28 28 28 28 28 27 26 26 26 25 25
22 22 22 23 25 27 27 26 26 27 27 27 27 27 27 27 27 28 28 27 27 27 27 26 27 27 27 27 28 28 28 28 28 28 28 28 28 27 26 25 25 25 25 25
21 22 22 22 24 25 25 25 26 26 26 26 26 26 27 27 28 27 26 26 26 26 26 26 27 27 27 28 28 28 28 28 28 27 27 26 26 26 26 25 25 25 25 25
21 21 22 23 23 23 23 23 24 25 25 25 25 25 24 25 25 26 26 26 26 26 25 25 26 26 26 27 27 27 27 27 27 26 26 26 26 26 25 25 25 25 24 24
18 18 19 20 21 22 22 23 23 24 24 25 24 24 23 24 24 25 26 26 26 25 24 24 25 25 26 26 26 26 26 25 24 25 25 25 25 25 25 25 24 24 24 24
18 17 18 19 20 20 21 21 22 22 23 24 24 24 23 23 23 23 24 25 25 24 24 24 24 24 24 24 23 23 24 24 24 24 24 24 23 23 23 24 24 23 23 24
17 17 17 18 18 19 20 20 21 21 21 22 22 22 22 22 22 22 22 22 22 22 22 23 23 23 23 23 23 23 23 23 23 22 21 21 21 22 22 22 22 22 23 24
16 16 16 17 17 17 18 18 19 19 19 20 21 21 21 20 20 20 20 21 21 21 21 22 22 22 22 22 22 21 21 20 20 20 20 20 21 21 21 22 21 21 22 23
15 15 15 15 16 17 17 17 17 17 17 17 18 19 20 20 19 18 19 19 20 20 20 20 20 20 21 21 20 20 19 19 19 19 19 19 20 20 20 21 22 22 22 21
14 15 15 15 15 15 15 15 15 16 16 16 16 18 18 19 19 18 18 18 18 19 19 19 19 19 19 20 20 19 19 19 19 19 19 20 20 20 21 22 23 22 22 21
12 12 12 13 13 14 14 14 14 14 14 15 15 15 16 17 18 18 18 18 18 19 18 18 19 19 19 19 19 19 19 19 19 19 19 19 20 21 22 22 23 23 23 22
12 11 11 12 13 13 13 13 14 14 14 14 14 14 15 15 15 17 17 17 18 18 18 18 19 19 19 19 19 19 19 20 20 20 20 20 21 22 22 22 22 22 24 24
11 12 12 12 12 12 13 13 13 13 13 13 13 14 15 15 15 14 15 16 16 17 18 18 18 18 19 19 18 18 19 19 20 20 21 21 22 22 22 22 22 23 24 24
12 12 11 11 11 12 12 13 12 13 13 14 14 15 15 15 15 15 15 15 15 16 16 17 17 17 17 17 17 18 18 19 19 20 20 19 20 21 21 21 22 23 24 24
11 11 12 12 12 12 12 13 13 13 13 13 14 14 14 15 15 15 15 15 15 15 16 16 17 17 17 17 17 18 18 18 19 20 20 20 20 21 22 22 22 23 24 24
Wind_Direction
241 239 240 242 240 239 242 246 247 247 249 251 254 259 260 260 263 267 271 269 269 270 270 272 273 272 271 272 273 271 269 268 269 270 272 272 270 269 271 274 276 277 276 274
243 242 240 240 241 242 244 246 246 246 246 250 254 258 262 263 264 267 270 271 267 267 268 272 273 272 272 271 269 267 267 268 268 269 270 271 271 270 271 273 276 277 276 275
244 244 244 240 240 243 245 245 246 248 248 250 255 257 259 265 266 270 273 276 273 268 267 270 273 273 272 270 269 267 266 267 269 270 269 270 271 272 271 273 275 276 277 277
241 242 245 245 243 243 244 245 247 249 250 251 255 256 260 263 264 267 271 275 274 271 270 270 270 272 272 271 269 268 265 266 269 270 272 271 270 272 273 274 274 276 277 277
239 241 245 245 246 246 247 247 247 248 251 252 255 257 259 261 261 263 266 270 272 271 270 271 272 273 270 271 270 269 267 268 268 270 271 271 270 271 273 273 272 274 275 276
240 241 243 243 244 245 247 248 247 248 250 252 256 258 261 261 261 263 265 267 269 271 271 272 272 273 273 274 274 272 269 266 266 267 269 270 270 272 272 271 272 273 273 274
241 242 243 244 245 246 249 251 251 252 253 255 258 261 262 261 262 263 265 267 269 272 272 272 273 272 272 272 273 275 270 267 267 268 268 268 270 272 272 270 270 271 273 274
243 244 244 246 248 248 251 252 252 254 254 256 258 260 262 262 264 264 265 268 270 272 272 271 272 271 271 271 272 275 274 270 268 269 269 270 270 270 270 270 271 272 273 273
244 246 247 247 248 248 250 252 255 256 257 258 260 260 261 262 263 266 267 269 270 271 271 268 270 272 271 271 271 273 274 271 270 271 273 274 272 271 271 273 274 274 275 276
243 246 247 247 246 248 251 254 256 258 259 261 261 260 260 263 263 265 268 270 271 271 269 269 271 272 271 269 268 271 272 273 272 272 273 273 274 273 273 274 276 275 276 276
244 249 250 250 251 251 253 256 257 260 264 265 264 262 262 264 264 266 268 269 269 270 271 271 270 269 270 269 268 269 271 273 274 272 273 273 273 274 275 274 273 274 274 274
244 248 251 251 254 255 257 259 260 263 266 267 265 265 267 268 268 267 267 268 269 270 270 271 270 270 269 268 269 269 270 272 273 273 272 272 273 273 273 273 273 272 271 273
247 251 253 254 256 259 262 262 261 262 264 267 267 267 268 269 270 270 270 271 270 269 270 272 271 271 270 269 269 270 271 272 272 273 272 271 272 272 272 272 272 272 272 273
250 251 252 255 258 259 261 261 261 262 263 264 265 267 267 268 270 270 269 269 268 269 271 273 273 271 270 269 269 269 270 271 271 271 272 272 273 272 271 271 272 272 271 272
254 255 255 257 260 259 260 262 263 264 264 263 264 267 268 268 270 269 268 268 269 270 271 272 273 272 271 271 270 269 269 270 270 270 271 271 270 270 269 270 271 270 270 270
259 259 257 258 260 260 261 264 266 266 267 266 265 264 264 266 267 267 267 270 273 274 273 272 272 271 271 271 270 269 269 269 268 268 269 269 268 268 267 268 269 269 268 269
259 259 260 260 262 263 263 267 270 268 268 268 268 266 265 267 268 268 267 269 271 271 271 271 272 272 272 271 270 269 269 270 270 270 270 269 267 265 266 267 268 267 267 268
262 262 263 264 265 265 265 269 271 269 268 268 268 268 267 267 267 267 268 271 271 271 272 272 272 273 273 272 270 269 269 270 272 272 271 269 267 265 266 266 267 268 268 269
265 263 263 264 266 266 268 272 273 270 266 265 265 267 267 268 267 267 270 272 272 273 273 272 271 272 271 270 269 269 269 270 272 273 270 267 266 264 264 265 266 267 267 267
270 268 269 270 269 270 271 274 275 272 269 266 264 265 266 266 267 267 268 272 273 273 272 271 270 270 269 269 269 268 267 268 270 268 268 267 267 266 265 264 265 266 267 268
273 271 271 272 273 274 275 276 275 274 271 267 263 263 264 263 263 265 267 270 272 274 275 273 272 270 270 269 269 268 266 267 268 267 267 268 268 268 268 265 266 267 270 270
272 273 274 273 273 274 277 278 276 273 271 269 267 264 263 262 261 263 268 272 271 273 275 275 275 273 271 269 268 267 265 265 266 266 267 267 268 269 270 271 270 270 272 272
269 272 271 268 271 274 277 279 278 275 272 270 270 267 263 262 262 263 267 270 270 274 276 276 274 273 272 271 270 267 265 265 266 267 268 269 268 270 272 273 273 272 272 272
267 271 275 276 278 279 281 282 280 276 274 271 269 269 268 268 267 267 269 272 274 277 276 275 275 272 271 272 271 269 267 267 267 265 266 269 270 271 273 274 274 274 273 273
267 272 277 280 282 284 285 285 282 278 274 271 271 272 273 274 273 273 274 277 280 279 277 276 276 274 273 272 271 269 267 267 266 266 267 269 270 271 271 272 274 276 276 275
267 271 274 280 284 286 286 288 287 283 279 276 276 276 276 276 276 276 278 280 281 282 282 279 276 275 274 273 272 270 267 266 266 268 269 271 273 273 273 274 276 277 278 277
269 266 268 274 280 283 284 284 286 284 280 280 281 278 277 278 277 277 279 281 281 283 282 280 279 277 276 276 275 273 271 269 268 269 270 271 272 273 274 275 276 278 278 277
Height
5780 5782 5784 5786 5788 5790 5792 5793 5795 5797 5798 5800 5801 5802 5803 5803 5804 5804 5804 5804 5804 5804 5804 5805 5805 5805 5805 5805 5805 5805 5806 5806 5806 5806 5806 5806 5806 5806 5806 5806 5806 5806 5805 5805
5774 5776 5777 5780 5782 5784 5785 5787 5788 5791 5793 5794 5795 5796 5796 5797 5797 5798 5798 5798 5798 5798 5798 5799 5799 5799 5799 5800 5800 5800 5800 5800 5800 5800 5800 5800 5800 5800 5800 5800 5800 5800 5799 5799
5768 5770 5771 5773 5777 5778 5780 5781 5783 5784 5787 5788 5788 5789 5790 5790 5790 5791 5792 5792 5792 5792 5792 5793 5794 5793 5793 5793 5793 5794 5794 5794 5794 5794 5794 5794 5794 5794 5794 5794 5793 5793 5793 5792
5761 5764 5764 5769 5770 5772 5773 5774 5776 5778 5780 5781 5782 5784 5784 5784 5785 5786 5786 5786 5786 5786 5786 5787 5787 5787 5786 5787 5787 5787 5787 5787 5787 5787 5787 5787 5787 5787 5787 5787 5786 5786 5786 5785
5754 5756 5758 5762 5763 5764 5766 5768 5770 5771 5773 5775 5776 5777 5778 5778 5779 5780 5780 5780 5780 5780 5780 5780 5780 5780 5779 5779 5779 5780 5779 5779 5779 5779 5780 5779 5780 5779 5779 5779 5779 5779 5778 5778
5747 5749 5751 5756 5757 5757 5760 5761 5763 5765 5766 5768 5769 5770 5772 5772 5772 5773 5773 5774 5774 5773 5773 5773 5773 5773 5772 5772 5772 5771 5771 5772 5772 5771 5772 5772 5772 5772 5771 5771 5771 5771 5771 5770
5740 5741 5744 5748 5749 5751 5754 5756 5757 5758 5759 5760 5762 5763 5764 5765 5765 5765 5766 5766 5766 5766 5766 5766 5765 5765 5765 5765 5765 5765 5764 5764 5763 5764 5764 5764 5764 5764 5764 5763 5763 5763 5763 5763
5733 5735 5739 5740 5742 5744 5746 5748 5749 5750 5752 5753 5754 5755 5756 5757 5757 5757 5758 5758 5758 5758 5757 5757 5757 5757 5757 5757 5757 5757 5756 5756 5756 5756 5756 5756 5756 5756 5756 5755 5756 5755 5755 5754
5726 5729 5731 5732 5734 5736 5737 5739 5741 5742 5744 5745 5746 5747 5748 5749 5749 5749 5749 5750 5750 5749 5748 5748 5748 5748 5748 5749 5749 5749 5749 5748 5748 5748 5748 5748 5748 5747 5747 5747 5748 5747 5747 5746
5719 5720 5722 5724 5726 5728 5730 5732 5733 5734 5735 5736 5737 5738 5740 5740 5741 5741 5741 5741 5741 5740 5739 5740 5740 5740 5740 5740 5740 5740 5741 5741 5740 5740 5740 5740 5740 5740 5740 5739 5739 5739 5739 5739
5712 5714 5715 5717 5719 5721 5723 5723 5724 5726 5727 5728 5728 5730 5731 5732 5732 5732 5732 5732 5732 5731 5731 5730 5731 5731 5731 5731 5732 5732 5732 5732 5732 5732 5732 5732 5731 5731 5731 5731 5731 5731 5731 5731
5706 5708 5709 5711 5713 5714 5715 5716 5717 5718 5719 5719 5719 5720 5722 5722 5723 5723 5724 5723 5722 5722 5722 5722 5721 5721 5722 5722 5723 5723 5724 5724 5724 5724 5723 5723 5723 5723 5723 5723 5723 5723 5723 5723
5700 5701 5703 5704 5706 5707 5708 5709 5710 5710 5711 5711 5711 5712 5713 5714 5714 5714 5714 5714 5713 5713 5713 5713 5713 5713 5713 5713 5714 5714 5714 5715 5715 5715 5715 5714 5714 5714 5715 5715 5714 5714 5715 5715
5694 5695 5696 5697 5699 5700 5700 5701 5701 5702 5703 5703 5704 5704 5705 5705 5706 5706 5705 5705 5705 5705 5705 5705 5704 5704 5704 5704 5705 5705 5705 5706 5706 5706 5706 5705 5705 5705 5706 5706 5706 5706 5706 5706
5687 5689 5690 5691 5691 5692 5692 5693 5693 5694 5695 5695 5695 5696 5696 5697 5697 5697 5697 5697 5697 5697 5696 5696 5696 5696 5696 5695 5695 5696 5696 5696 5697 5697 5697 5697 5697 5697 5697 5698 5698 5698 5698 5698
5681 5682 5683 5684 5684 5685 5685 5686 5686 5686 5686 5687 5687 5687 5688 5688 5688 5689 5689 5689 5689 5689 5688 5687 5687 5687 5687 5686 5686 5687 5687 5687 5688 5688 5688 5688 5688 5689 5689 5689 5690 5690 5690 5690
5675 5675 5676 5677 5677 5677 5678 5678 5678 5678 5678 5678 5679 5679 5680 5680 5681 5681 5681 5681 5680 5680 5680 5679 5679 5678 5678 5678 5678 5678 5678 5679 5679 5679 5679 5680 5680 5680 5681 5681 5681 5682 5682 5682
5669 5669 5669 5670 5670 5670 5670 5670 5670 5670 5670 5671 5671 5672 5672 5673 5673 5673 5674 5673 5673 5672 5672 5671 5671 5670 5670 5670 5670 5671 5671 5671 5671 5671 5671 5671 5672 5672 5673 5673 5673 5674 5674 5674
5662 5662 5662 5663 5663 5663 5663 5663 5663 5663 5663 5663 5664 5664 5665 5665 5665 5665 5666 5665 5665 5665 5664 5664 5663 5663 5663 5663 5663 5663 5663 5663 5663 5663 5663 5664 5664 5664 5665 5666 5666 5667 5667 5666
5657 5657 5657 5656 5657 5657 5656 5656 5656 5655 5655 5656 5657 5657 5657 5658 5658 5658 5658 5658 5658 5657 5657 5657 5656 5656 5656 5656 5656 5656 5656 5656 5656 5656 5656 5657 5657 5658 5658 5659 5659 5659 5659 5659
5651 5651 5651 5651 5651 5651 5650 5650 5649 5648 5649 5649 5650 5650 5651 5651 5651 5651 5651 5652 5651 5651 5650 5650 5650 5649 5649 5649 5649 5649 5650 5650 5650 5650 5650 5650 5651 5651 5652 5652 5652 5652 5651 5651
5646 5647 5647 5647 5646 5646 5645 5645 5644 5644 5644 5644 5644 5645 5645 5645 5645 5646 5646 5645 5645 5644 5644 5643 5643 5642 5642 5642 5643 5643 5643 5643 5644 5644 5644 5644 5644 5644 5645 5645 5645 5644 5644 5644
5642 5642 5642 5642 5642 5642 5641 5640 5640 5640 5640 5640 5640 5639 5640 5640 5640 5640 5640 5640 5639 5638 5638 5637 5637 5637 5637 5636 5637 5637 5637 5637 5637 5637 5637 5637 5637 5637 5638 5638 5637 5637 5636 5636
5639 5639 5638 5638 5638 5637 5636 5636 5636 5635 5635 5636 5635 5635 5635 5635 5635 5635 5634 5634 5633 5633 5632 5632 5631 5631 5631 5630 5630 5630 5631 5631 5631 5631 5631 5630 5630 5630 5630 5630 5629 5629 5628 5628
5635 5635 5635 5634 5634 5633 5633 5632 5632 5632 5631 5631 5631 5631 5630 5630 5630 5629 5629 5629 5628 5627 5627 5626 5625 5625 5625 5624 5624 5624 5624 5624 5624 5624 5624 5624 5623 5623 5623 5622 5622 5621 5620 5620
5631 5631 5631 5631 5630 5630 5629 5628 5628 5628 5627 5627 5627 5626 5626 5625 5625 5625 5624 5624 5623 5622 5621 5621 5620 5619 5619 5618 5618 5618 5617 5617 5617 5617 5617 5617 5616 5616 5615 5615 5614 5613 5613 5612
5627 5627 5627 5627 5626 5626 5625 5624 5624 5624 5623 5623 5622 5622 5621 5620 5620 5619 5619 5618 5618 5617 5616 5615 5614 5613 5613 5612 5611 5611 5611 5611 5610 5610 5610 5610 5609 5609 5608 5607 5606 5606 5605 5604